TimeEDT,TemperatureF,Dew PointF,Humidity,Sea Level PressureIn,VisibilityMPH,Wind Direction,Wind SpeedMPH,Gust SpeedMPH,PrecipitationIn,Events,Conditions,WindDirDegrees,DateUTC
12:53 AM,44.1,39.9,85,30.09,10.0,Calm,Calm,-,N/A,,Clear,0,2013-05-17 04:53:00
1:53 AM,44.6,39.2,81,30.10,10.0,Calm,Calm,-,N/A,,Clear,0,2013-05-17 05:53:00
2:53 AM,39.9,37.9,93,30.10,10.0,Calm,Calm,-,N/A,,Clear,0,2013-05-17 06:53:00
3:53 AM,39.0,39.0,100,30.11,10.0,Calm,Calm,-,N/A,,Clear,0,2013-05-17 07:53:00
4:18 AM,39.2,37.4,93,30.10,1.8,East,3.5,-,N/A,,Clear,80,2013-05-17 08:18:00
4:22 AM,37.4,37.4,100,30.11,1.0,ENE,3.5,-,N/A,,Clear,70,2013-05-17 08:22:00
4:28 AM,37.4,37.4,100,30.11,1.8,Calm,Calm,-,N/A,,Clear,0,2013-05-17 08:28:00
4:30 AM,37.4,37.4,100,30.11,3.0,ENE,3.5,-,N/A,,Clear,60,2013-05-17 08:30:00
4:53 AM,37.9,37.9,100,30.12,10.0,East,3.5,-,N/A,,Clear,80,2013-05-17 08:53:00
5:53 AM,39.9,39.0,97,30.12,10.0,East,3.5,-,N/A,,Overcast,80,2013-05-17 09:53:00
6:53 AM,43.0,41.0,93,30.14,10.0,East,3.5,-,N/A,,Mostly Cloudy,90,2013-05-17 10:53:00
7:53 AM,46.0,42.1,86,30.16,10.0,East,3.5,-,N/A,,Mostly Cloudy,100,2013-05-17 11:53:00
8:53 AM,51.1,41.0,68,30.18,10.0,SE,6.9,-,N/A,,Mostly Cloudy,140,2013-05-17 12:53:00
9:53 AM,55.0,37.9,53,30.20,10.0,Variable,6.9,-,N/A,,Scattered Clouds,0,2013-05-17 13:53:00
10:53 AM,55.0,37.9,53,30.22,10.0,SSE,6.9,-,N/A,,Overcast,150,2013-05-17 14:53:00
11:53 AM,55.9,39.0,53,30.22,10.0,ESE,5.8,-,N/A,,Overcast,120,2013-05-17 15:53:00
12:53 PM,57.0,39.0,51,30.23,10.0,ESE,8.1,-,N/A,,Overcast,120,2013-05-17 16:53:00
1:53 PM,60.1,39.9,47,30.21,10.0,East,8.1,-,N/A,,Partly Cloudy,100,2013-05-17 17:53:00
2:53 PM,59.0,39.2,48,30.19,10.0,ESE,6.9,-,N/A,,Scattered Clouds,120,2013-05-17 18:53:00
3:53 PM,59.0,41.0,51,30.21,10.0,SSE,5.8,-,N/A,,Overcast,150,2013-05-17 19:53:00
4:53 PM,57.9,44.1,60,30.20,10.0,SE,3.5,-,0.00,Rain,Light Rain,140,2013-05-17 20:53:00
5:53 PM,57.9,44.1,60,30.18,10.0,East,6.9,-,0.00,,Overcast,100,2013-05-17 21:53:00
6:53 PM,57.0,43.0,59,30.17,10.0,ESE,6.9,-,0.00,,Overcast,120,2013-05-17 22:53:00
7:53 PM,54.0,43.0,66,30.19,10.0,South,3.5,-,0.00,Rain,Light Rain,180,2013-05-17 23:53:00
8:53 PM,53.1,42.1,66,30.19,10.0,ESE,4.6,-,0.00,,Overcast,120,2013-05-18 00:53:00
9:53 PM,51.1,41.0,68,30.22,10.0,SE,4.6,-,0.00,Rain,Light Rain,130,2013-05-18 01:53:00
10:53 PM,48.9,43.0,80,30.21,10.0,SE,3.5,-,0.00,,Overcast,130,2013-05-18 02:53:00
11:53 PM,48.9,44.1,83,30.22,10.0,SE,3.5,-,0.00,,Overcast,130,2013-05-18 03:53:00